KD4IGN Weather Reports


time (UTC)temp
C
wind
direction
speed
KPH
gust
KPH
rain 1hr
cm
rain 24hr
cm
rain mn
cm
humidity
%
barometer
mb
20260506131659 -5 299 0.0 0.0 0.00 0.00 0.00 93 1015.5
20260506130519 -5 0.0 0.0 0.00 0.00 0.00 92 1015.3
20260506125519 -5 118 0.0 1.6 0.00 0.00 0.00 93 1015.1
20260506124519 -5 270 0.0 3.2 0.00 0.00 0.00 93 1014.9
20260506123516 -5 0.0 0.0 0.00 0.00 0.00 93 1014.8
20260506122519 -5 328 0.0 1.6 0.00 0.00 0.00 94 1014.6
20260506121600 -5 0.0 0.0 0.00 0.00 0.00 94 1014.7
20260506120519 -5 359 0.0 0.0 0.00 0.00 0.00 94 1014.5
20260506115520 -5 36 0.0 1.6 0.00 0.00 0.00 95 1014.4
20260506114517 -5 22 0.0 0.0 0.00 0.00 0.00 95 1014.3
20260506113517 -5 13 0.0 1.6 0.00 0.00 0.00 95 1014.3
20260506112517 -5 13 0.0 1.6 0.00 0.00 0.00 95 1014.2
20260506111520 -5 0.0 0.0 0.00 0.00 0.00 95 1014.0
20260506110520 -5 0.0 0.0 0.00 0.00 0.00 95 1013.9
20260506105517 -5 337 0.0 0.0 0.00 0.00 0.00 95 1013.8
20260506104517 -5 0.0 0.0 0.00 0.00 0.00 95 1013.8
20260506103538 -5 348 0.0 0.0 0.00 0.00 0.00 95 1013.8
20260506102518 -4 0.0 0.0 0.00 0.00 0.00 95 1013.7
20260506101517 -4 0.0 0.0 0.00 0.00 0.00 95 1013.7
20260506100518 -4 356 0.0 0.0 0.00 0.00 0.00 95 1013.9
20260506095518 -4 9 0.0 0.0 0.00 0.00 0.00 95 1014.0
20260506094518 -4 0.0 0.0 0.00 0.00 0.00 95 1013.8
20260506093538 -4 0.0 0.0 0.00 0.00 0.00 95 1013.9
20260506092518 -4 319 0.0 0.0 0.00 0.00 0.00 95 1013.9
20260506091518 -4 0.0 0.0 0.00 0.00 0.00 95 1013.9
20260506090518 -4 0.0 0.0 0.00 0.00 0.00 94 1013.8
20260506085519 -4 0.0 0.0 0.00 0.00 0.00 95 1014.0
20260506084538 -4 0.0 0.0 0.00 0.00 0.00 95 1014.0
20260506083519 -4 46 0.0 1.6 0.00 0.00 0.00 95 1014.0
20260506082519 -4 10 0.0 0.0 0.00 0.05 0.00 95 1014.1
20260506081539 -4 0.0 0.0 0.00 0.08 0.00 95 1014.1
20260506080540 -4 347 0.0 0.0 0.00 0.13 0.00 95 1014.3
20260506073519 -4 0.0 0.0 0.00 0.15 0.00 95 1014.3
20260506072519 -4 0.0 0.0 0.00 0.20 0.00 95 1014.4
20260506071520 -3 0.0 0.0 0.00 0.25 0.00 95 1014.7
20260506070537 -3 0.0 0.0 0.00 0.25 0.00 95 1014.6
20260506061517 -3 0.0 0.0 0.00 0.25 0.00 96 1013.9
20260506060537 -3 208 0.0 0.0 0.00 0.25 0.00 95 1014.1
20260506050538 -3 0.0 0.0 0.00 0.25 0.25 95 1013.7
20260506044518 -3 0.0 0.0 0.00 0.25 0.25 95 1013.6
20260506043518 -3 0.0 0.0 0.00 0.25 0.25 95 1013.6
20260506042519 -3 0.0 0.0 0.00 0.25 0.25 95 1013.6
20260506041519 -3 0.0 0.0 0.00 0.25 0.25 95 1013.5
20260506040538 -3 0.0 0.0 0.00 0.25 0.25 95 1013.4
20260506035518 -3 0.0 0.0 0.00 0.25 0.25 95 1013.3
20260506034519 -3 326 0.0 0.0 0.00 0.25 0.25 95 1013.2
20260506033519 -3 0.0 0.0 0.00 0.25 0.25 95 1013.1
20260506032519 -3 0.0 0.0 0.00 0.25 0.25 95 1013.2
20260506031536 -3 344 0.0 0.0 0.00 0.25 0.25 95 1013.0
20260506030519 -3 0.0 0.0 0.00 0.25 0.25 95 1012.9
20260506025519 -3 0.0 0.0 0.00 0.25 0.25 95 1012.8
20260506024519 -3 338 0.0 1.6 0.00 0.25 0.25 95 1012.7
20260506023519 -3 0.0 0.0 0.00 0.25 0.25 95 1012.4
20260506022520 -3 284 0.0 1.6 0.00 0.25 0.25 95 1012.3
20260506021537 -3 1 0.0 0.0 0.00 0.25 0.25 95 1012.0
20260506020518 -3 16 0.0 1.6 0.00 0.25 0.25 95 1011.9
20260506015540 -3 0.0 0.0 0.00 0.25 0.25 94 1011.8
20260506014520 -3 335 0.0 0.0 0.00 0.28 0.25 94 1011.7
20260506013517 -3 0.0 0.0 0.00 0.33 0.25 94 1011.5
20260506012517 -3 354 0.0 0.0 0.00 0.36 0.25 94 1011.4
20260506011517 -3 315 0.0 0.0 0.00 0.36 0.25 93 1011.2
20260506010517 -3 360 0.0 0.0 0.00 0.43 0.25 94 1011.2
20260506005521 -3 0.0 0.0 0.00 0.66 0.25 94 1011.2
20260506004518 -3 0.0 0.0 0.00 0.81 0.25 94 1011.3
20260506003518 -3 0.0 0.0 0.00 0.86 0.25 94 1011.3
20260506002518 -3 359 0.0 0.0 0.00 0.91 0.25 93 1011.4
20260506001518 -3 306 0.0 0.0 0.00 0.99 0.25 93 1011.1
20260506000518 -2 16 0.0 0.0 0.00 1.24 0.25 93 1010.9
20260505235518 -2 294 0.0 1.6 0.00 1.30 0.25 93 1010.8
20260505234518 -3 2 0.0 1.6 0.00 1.42 0.25 93 1010.8
20260505233518 -3 0.0 0.0 0.00 1.60 0.25 93 1010.9
20260505232519 -3 0.0 0.0 0.00 1.60 0.25 93 1010.8
20260505231519 -3 0.0 0.0 0.00 1.60 0.25 93 1010.9
20260505230539 -3 0 0.0 1.6 0.00 1.60 0.25 93 1011.1
20260505225539 -3 0.0 0.0 0.00 1.60 0.25 93 1011.1
20260505224516 -3 78 0.0 0.0 0.00 1.60 0.25 94 1011.0
20260505223539 -3 116 0.0 0.0 0.00 1.60 0.25 94 1011.2
20260505222519 -3 28 0.0 3.2 0.00 1.60 0.25 93 1011.2
20260505221519 -2 14 0.0 1.6 0.00 1.60 0.25 93 1010.7
20260505220519 -2 0.0 0.0 0.00 1.60 0.25 92 1010.6
20260505215516 -2 261 0.0 0.0 0.00 1.60 0.25 91 1010.7
20260505214516 -1 331 0.0 1.6 0.00 1.60 0.25 90 1010.4
20260505213517 0 12 0.0 1.6 0.00 1.60 0.25 89 1010.3
20260505212520 0 77 0.0 1.6 0.00 1.60 0.25 89 1010.4
20260505211520 0 0.0 0.0 0.00 1.60 0.25 88 1010.2
20260505210520 0 83 0.0 0.0 0.00 1.60 0.25 88 1010.4
20260505205557 0 0.0 0.0 0.00 1.60 0.25 89 1010.5
20260505204537 0 0.0 0.0 0.00 1.60 0.25 89 1010.6
20260505203537 0 4 0.0 0.0 0.00 1.63 0.25 89 1010.8
20260505202517 0 142 0.0 0.0 0.00 1.63 0.25 89 1010.9
20260505201601 0 0.0 0.0 0.00 1.63 0.25 91 1011.0
20260505200521 0 290 0.0 0.0 0.00 1.63 0.25 91 1011.4
20260505195518 -1 19 0.0 0.0 0.00 1.68 0.25 91 1011.5
20260505194538 0 263 0.0 1.6 0.00 1.73 0.25 91 1011.6
20260505193518 0 0.0 0.0 0.00 1.91 0.25 91 1011.7
20260505192558 0 343 0.0 1.6 0.00 2.06 0.25 91 1011.8
20260505191518 0 114 0.0 1.6 0.00 2.11 0.25 91 1011.9
20260505190536 0 321 0.0 1.6 0.00 2.18 0.25 91 1012.1
20260505185518 0 0.0 0.0 0.00 2.18 0.25 90 1012.0
20260505184518 0 78 0.0 3.2 0.00 2.18 0.25 88 1011.8
20260505183519 0 58 0.0 0.0 0.00 2.18 0.25 88 1011.8
20260505182519 0 212 0.0 3.2 0.00 2.18 0.25 88 1011.8
20260505181519 0 8 0.0 1.6 0.00 2.21 0.25 89 1011.8
20260505180517 0 53 0.0 0.0 0.00 2.21 0.25 90 1011.8
20260505175537 0 38 0.0 0.0 0.00 2.21 0.25 92 1011.9
20260505174616 0 258 0.0 1.6 0.00 2.21 0.25 92 1012.3
20260505173519 0 0.0 0.0 0.00 2.21 0.25 93 1012.3
20260505172559 0 50 0.0 0.0 0.00 2.21 0.25 92 1012.2
20260505171517 0 0.0 0.0 0.00 2.21 0.25 92 1012.3
20260505170518 0 35 0.0 0.0 0.00 2.21 0.25 92 1012.3
20260505165517 0 0.0 0.0 0.00 2.21 0.25 92 1012.7
20260505164517 0 268 0.0 0.0 0.00 2.21 0.25 92 1013.0
20260505163520 0 348 0.0 1.6 0.00 2.21 0.25 91 1012.5
20260505162518 0 0.0 0.0 0.00 2.21 0.25 92 1012.5
20260505161518 0 332 0.0 3.2 0.00 2.21 0.25 92 1012.5
20260505160517 0 112 0.0 0.0 0.00 2.21 0.25 93 1012.7
20260505152520 0 130 0.0 1.6 0.00 2.21 0.25 93 1012.8
20260505151518 0 52 0.0 1.6 0.00 2.21 0.25 94 1012.7
20260505150518 -1 300 0.0 1.6 0.00 2.21 0.25 94 1012.7
20260505140519 -1 0.0 0.0 0.00 2.21 0.25 95 1012.8